Regional Weather Roundup
Issued by NWS Green Bay, WI

Home | Current Version | Previous Version | Text Only | Print | Product List | Glossary On
Versions: 1 2 3 4 5 6 7 8 9 10 11 12 13 14 15 16 17 18 19 20 21 22 23 24 25 26 27 28 29 30 31 32 33 34 35 36 37 38 39 40 41 42 43 44 45 46 47 48 49 50
000
ASUS43 KGRB 222311
RWRGRB

NORTH-CENTRAL AND NORTHEAST WISCONSIN REGIONAL WEATHER ROUNDUP
NATIONAL WEATHER SERVICE GREEN BAY WI
600 PM CDT SAT JUL 22 2017

WIZ005-009-010>012-018-019-230000-
NORTH CENTRAL WISCONSIN

CITY           SKY/WX    TMP DP  RH WIND       PRES   REMARKS
IRONWOOD       SUNNY     72  63  73 NW8       29.82F
MANITOWISH WTR CLOUDY    79  64  59 NW13      29.82R
ARBOR VITAE    CLOUDY    80  67  65 N9        29.80S
EAGLE RIVER    MOSUNNY   79  63  58 NW5       29.79F
LAND O LAKES   MOSUNNY   80  63  56 N9        29.82S
RHINELANDER    MOSUNNY   83  67  58 W10       29.80F
PHILLIPS       SUNNY     80  66  61 W5        29.80S
ANTIGO         MOSUNNY   82  67  60 W12       29.80F
TOMAHAWK         N/A     82  63  52 W10       29.80F
MERRILL        MOSUNNY   85  67  55 W6        29.80S
$$

WIZ013-073-230000-
NORTHEAST WISCONSIN

CITY           SKY/WX    TMP DP  RH WIND       PRES   REMARKS
IRON MOUNTAIN  MOSUNNY   82  66  58 S6        29.76F
MARINETTE      SUNNY     78  66  66 S9        29.78F
OCONTO         SUNNY     79  66  65 S6        29.78F
$$

WIZ017-030-035>037-045-230000-
CENTRAL WISCONSIN

CITY           SKY/WX    TMP DP  RH WIND       PRES   REMARKS
MEDFORD        MOSUNNY   81  66  60 W6        29.81S
WAUSAU         SUNNY     82  66  58 W9        29.77F
MOSINEE        PTSUNNY   82  66  57 W6        29.81F
MARSHFIELD     MOSUNNY   84  67  56 W7        29.80S
WISC RAPIDS    MOSUNNY   86  68  54 VRB6      29.80F
STEVENS POINT  MOSUNNY   83  66  55 W8        29.80F
WAUPACA        SUNNY     87  69  55 S5        29.78F HX  91
SHAWANO        MOSUNNY   85  68  56 S7        29.77F
CLINTONVILLE   SUNNY     82  66  57 S6        29.78F
WAUTOMA        SUNNY     84  70  62 CALM      29.79F
$$

WIZ038-039-048-051-230000-
FOX VALLEY

CITY           SKY/WX    TMP DP  RH WIND       PRES   REMARKS
NWS GREEN BAY  MOSUNNY   82  70  66 S6        29.78F
APPLETON       MOSUNNY   82  63  51 VRB5      29.79S
OSHKOSH        SUNNY     82  69  64 E6        29.79F
FOND DU LAC    SUNNY     82  67  60 CALM      29.80F
$$

WIZ022-050-052-230000-
EAST CENTRAL WISCONSIN

CITY           SKY/WX    TMP DP  RH WIND       PRES   REMARKS
EPHRAIM        FAIR      75  64  69 SE6       29.79F
WASHINGTON ISL FAIR      73  63  69 SE7       29.79R
STURGEON BAY     N/A     76  64  66 SE9       29.80F
MANITOWOC      MOSUNNY   75  65  70 E7        29.81F
SHEBOYGAN      PTSUNNY   77  67  71 E6        29.81S
$$

LMZ563-521-522-541>543-230000-
LAKESHORE

STATION/POSITION TIME  TEMP    WIND        PRES    VSBY  WAVE
                       AIR SEA DIR/SP/G                  HT/PER
                 (UTC) (F)     (DEG/KT/KT) (MB)    (MI)  (FT/S)
SHEBOYGAN LKSHOR 2300   70     140/  3/  3 1008.9F
KEWAUNEE LKSHORE 2248   73     140/  4/  5 1008.8F
NORTHPORT PIER   2240   73     140/  5/  7 1009.1R
N MID LAKE BUOY  2250   70 70  110/  2/  2 1009.3S         0
S GREEN BAY BUOY 2230   78 76  160/  4/  6 1008.7F
SISTER BAY LKSHO 2302   77      60/ 10/ 12   N/A
CHAMBERS ISLAND  2240   78     120/  2/  5 1008.1S
MENOMINEE LKSHOR 2248   76     150/  7/  8 1008.3F
$$



USA.gov is the U.S. government's official web portal to all federal, state and local government web resources and services.